• In Spain
  • List of Countries
  • For 7 days
  • Water Temperature
  • Satellite Maps
  • Weather Map
  • Weather Widgets
  • user-avatar
    Login

    Hourly Weather Haradok

    Today, 26 February, Monday

    Time Temperature Precipitation Wind Pressure Humidity
    00:00 -18°C° 0 mm 1 mps 756 mmHg 96%
    01:00 -18°C° 0 mm 1 mps 756 mmHg 97%
    02:00 -18°C° 0 mm 1 mps 756 mmHg 97%
    03:00 -18°C° 0 mm 1 mps 756 mmHg 97%
    04:00 -18°C° 0 mm 1 mps 756 mmHg 97%
    05:00 -18°C° 0 mm 1 mps 756 mmHg 98%
    06:00 -18°C° 0 mm 1 mps 756 mmHg 97%
    07:00 -18°C° 0 mm 1 mps 756 mmHg 97%
    08:00 -18°C° 0 mm 1 mps 756 mmHg 96%
    09:00 -17°C° 0 mm 1 mps 756 mmHg 91%
    10:00 -15°C° 0 mm 1 mps 756 mmHg 87%
    11:00 -14°C° 0 mm 1 mps 756 mmHg 82%
    12:00 -13°C° 0 mm 1 mps 756 mmHg 79%
    13:00 -13°C° 0 mm 1 mps 756 mmHg 76%
    14:00 -12°C° 0 mm 0 mps 756 mmHg 74%
    15:00 -13°C° 0 mm 0 mps 756 mmHg 77%
    16:00 -14°C° 0 mm 0 mps 756 mmHg 81%
    17:00 -14°C° 0 mm 0 mps 755 mmHg 84%
    18:00 -15°C° 0 mm 1 mps 756 mmHg 87%
    19:00 -16°C° 0 mm 1 mps 756 mmHg 89%
    20:00 -17°C° 0 mm 1 mps 756 mmHg 91%
    21:00 -18°C° 0 mm 1 mps 756 mmHg 92%
    22:00 -18°C° 0 mm 1 mps 756 mmHg 93%
    23:00 -18°C° 0 mm 1 mps 756 mmHg 94%

    Tomorrow, 27 February, Tuesday

    Time Temperature Precipitation Wind Pressure Humidity
    00:00 -19°C° 0 mm 1 mps 757 mmHg 94%
    01:00 -19°C° 0 mm 1 mps 757 mmHg 95%
    02:00 -20°C° 0 mm 1 mps 757 mmHg 95%
    03:00 -23°C° 0 mm 2 mps 758 mmHg 95%
    04:00 -24°C° 0 mm 2 mps 758 mmHg 96%
    05:00 -24°C° 0 mm 2 mps 758 mmHg 96%
    06:00 -24°C° 0 mm 2 mps 758 mmHg 95%
    07:00 -24°C° 0 mm 2 mps 759 mmHg 95%
    08:00 -24°C° 0 mm 2 mps 759 mmHg 94%
    09:00 -24°C° 0 mm 3 mps 760 mmHg 91%
    10:00 -22°C° 0 mm 3 mps 760 mmHg 88%
    11:00 -21°C° 0 mm 3 mps 761 mmHg 85%
    12:00 -19°C° 0 mm 3 mps 761 mmHg 83%
    13:00 -18°C° 0 mm 3 mps 761 mmHg 81%
    14:00 -18°C° 0 mm 4 mps 761 mmHg 79%
    15:00 -18°C° 0 mm 4 mps 761 mmHg 81%
    16:00 -18°C° 0 mm 3 mps 762 mmHg 82%
    17:00 -18°C° 0 mm 3 mps 762 mmHg 84%
    18:00 -20°C° 0 mm 4 mps 762 mmHg 85%
    19:00 -20°C° 0 mm 4 mps 762 mmHg 87%
    20:00 -22°C° 0 mm 4 mps 763 mmHg 88%
    21:00 -22°C° 0 mm 4 mps 763 mmHg 89%
    22:00 -22°C° 0 mm 4 mps 763 mmHg 89%
    23:00 -23°C° 0 mm 4 mps 764 mmHg 89%

    Day after tomorrow, 28 February, Wednesday

    Time Temperature Precipitation Wind Pressure Humidity
    00:00 -23°C° 0 mm 4 mps 764 mmHg 90%
    01:00 -23°C° 0 mm 4 mps 764 mmHg 90%
    02:00 -24°C° 0 mm 4 mps 764 mmHg 90%
    03:00 -24°C° 0 mm 4 mps 764 mmHg 90%
    04:00 -25°C° 0 mm 5 mps 764 mmHg 89%
    05:00 -25°C° 0 mm 5 mps 764 mmHg 89%
    06:00 -25°C° 0 mm 5 mps 764 mmHg 88%
    07:00 -25°C° 0 mm 5 mps 764 mmHg 87%
    08:00 -25°C° 0 mm 5 mps 764 mmHg 85%
    09:00 -24°C° 0 mm 5 mps 763 mmHg 83%
    10:00 -23°C° 0 mm 6 mps 763 mmHg 80%
    11:00 -22°C° 0 mm 6 mps 763 mmHg 78%
    12:00 -21°C° 0 mm 6 mps 762 mmHg 76%
    13:00 -20°C° 0 mm 6 mps 762 mmHg 75%
    14:00 -18°C° 0 mm 6 mps 762 mmHg 74%
    15:00 -18°C° 0 mm 6 mps 761 mmHg 75%
    16:00 -18°C° 0 mm 6 mps 761 mmHg 77%
    17:00 -18°C° 0 mm 5 mps 761 mmHg 78%
    18:00 -19°C° 0 mm 5 mps 760 mmHg 80%
    19:00 -19°C° 0 mm 5 mps 760 mmHg 82%
    20:00 -20°C° 0 mm 5 mps 760 mmHg 85%
    21:00 -20°C° 0 mm 5 mps 760 mmHg 85%
    22:00 -21°C° 0 mm 5 mps 760 mmHg 86%
    23:00 -21°C° 0 mm 5 mps 760 mmHg 87%

    1 March, Thursday

    Time Temperature Precipitation Wind Pressure Humidity
    00:00 -21°C° 0 mm 5 mps 760 mmHg 87%
    01:00 -20°C° 0 mm 4 mps 760 mmHg 88%
    02:00 -20°C° 0 mm 4 mps 760 mmHg 89%
    03:00 -20°C° 0 mm 4 mps 759 mmHg 89%
    04:00 -20°C° 0 mm 4 mps 759 mmHg 89%
    05:00 -20°C° 0 mm 4 mps 759 mmHg 89%
    06:00 -20°C° 0.1 mm 4 mps 759 mmHg 89%
    07:00 -20°C° 0.1 mm 4 mps 759 mmHg 89%
    08:00 -20°C° 0.1 mm 4 mps 759 mmHg 88%
    09:00 -19°C° 0 mm 4 mps 759 mmHg 87%
    10:00 -18°C° 0 mm 4 mps 759 mmHg 85%
    11:00 -17°C° 0 mm 4 mps 759 mmHg 84%
    12:00 -16°C° 0 mm 4 mps 759 mmHg 84%
    13:00 -15°C° 0 mm 4 mps 759 mmHg 83%
    14:00 -14°C° 0 mm 4 mps 758 mmHg 83%
    15:00 -14°C° 0 mm 4 mps 758 mmHg 85%
    16:00 -14°C° 0 mm 4 mps 758 mmHg 86%
    17:00 -13°C° 0 mm 3 mps 757 mmHg 88%
    18:00 -14°C° 0 mm 4 mps 757 mmHg 89%
    19:00 -15°C° 0 mm 4 mps 757 mmHg 90%
    20:00 -15°C° 0 mm 4 mps 757 mmHg 91%
    21:00 -15°C° 0.2 mm 4 mps 757 mmHg 90%
    22:00 -15°C° 0.2 mm 4 mps 756 mmHg 90%
    23:00 -15°C° 0.2 mm 4 mps 756 mmHg 89%

    2 March, Friday

    Time Temperature Precipitation Wind Pressure Humidity
    00:00 -15°C° 0.2 mm 4 mps 756 mmHg 89%
    01:00 -15°C° 0.2 mm 4 mps 755 mmHg 89%
    02:00 -15°C° 0.2 mm 4 mps 755 mmHg 90%
    03:00 -15°C° 0.1 mm 4 mps 754 mmHg 89%
    04:00 -15°C° 0.1 mm 4 mps 754 mmHg 89%
    05:00 -15°C° 0.1 mm 4 mps 754 mmHg 88%
    06:00 -15°C° 0 mm 4 mps 753 mmHg 88%
    07:00 -15°C° 0 mm 4 mps 753 mmHg 87%
    08:00 -15°C° 0 mm 4 mps 753 mmHg 86%
    09:00 -14°C° 0.1 mm 4 mps 753 mmHg 85%
    10:00 -12°C° 0.1 mm 4 mps 753 mmHg 83%
    11:00 -12°C° 0.1 mm 4 mps 752 mmHg 82%
    12:00 -10°C° 0.1 mm 3 mps 752 mmHg 82%
    13:00 -10°C° 0.1 mm 3 mps 752 mmHg 83%
    14:00 -9°C° 0.1 mm 3 mps 751 mmHg 83%
    15:00 -9°C° 0.1 mm 3 mps 751 mmHg 85%
    16:00 -9°C° 0.1 mm 3 mps 751 mmHg 87%
    17:00 -9°C° 0.1 mm 3 mps 750 mmHg 89%
    18:00 -9°C° 0 mm 2 mps 750 mmHg 90%
    19:00 -10°C° 0 mm 2 mps 750 mmHg 92%
    20:00 -12°C° 0 mm 2 mps 750 mmHg 94%
    21:00 -10°C° 0 mm 2 mps 750 mmHg 94%
    22:00 -10°C° 0 mm 2 mps 749 mmHg 94%
    23:00 -10°C° 0 mm 2 mps 749 mmHg 94%

    3 March, Saturday

    Time Temperature Precipitation Wind Pressure Humidity
    00:00 -10°C° 0 mm 2 mps 749 mmHg 95%
    01:00 -10°C° 0 mm 2 mps 749 mmHg 95%
    02:00 -10°C° 0 mm 2 mps 748 mmHg 95%
    03:00 -10°C° 0 mm 2 mps 748 mmHg 96%
    04:00 -10°C° 0 mm 2 mps 748 mmHg 96%
    05:00 -10°C° 0 mm 2 mps 747 mmHg 96%
    06:00 -10°C° 0 mm 2 mps 747 mmHg 95%
    07:00 -10°C° 0 mm 2 mps 747 mmHg 95%
    08:00 -10°C° 0 mm 2 mps 747 mmHg 94%
    09:00 -9°C° 0 mm 2 mps 747 mmHg 92%
    10:00 -8°C° 0 mm 2 mps 747 mmHg 90%
    11:00 -8°C° 0 mm 2 mps 747 mmHg 87%
    12:00 -7°C° 0 mm 2 mps 746 mmHg 86%
    13:00 -7°C° 0 mm 2 mps 746 mmHg 85%
    14:00 -6°C° 0 mm 2 mps 746 mmHg 85%
    15:00 -6°C° 0 mm 2 mps 746 mmHg 86%
    16:00 -6°C° 0 mm 2 mps 745 mmHg 87%
    17:00 -7°C° 0 mm 2 mps 745 mmHg 89%
    18:00 -6°C° 0 mm 1 mps 745 mmHg 90%
    19:00 -7°C° 0 mm 1 mps 745 mmHg 92%
    20:00 -7°C° 0 mm 1 mps 745 mmHg 93%
    21:00 -8°C° 0 mm 1 mps 745 mmHg 93%
    22:00 -8°C° 0 mm 1 mps 745 mmHg 93%
    23:00 -9°C° 0 mm 1 mps 745 mmHg 94%
    Show more